{"data":{"norad_id":53038,"epoch":"2026-09-19T15:50:50.904960Z","epoch_age_seconds":141990,"freshness":"FRESH","line1":"1 53038U 22076BE  26262.66031140  .00003852  00000+0  12518-3 0  9992","line2":"2 53038  53.1597 277.4792 0001399 106.4646 253.6510 15.34372485232481","mean_motion":15.34372485,"eccentricity":0.0001399,"inclination_deg":53.1597,"raan_deg":277.4792,"arg_perigee_deg":106.4646,"mean_anomaly_deg":253.651,"bstar":0.00012518,"rev_number":23248,"period_min":93.849440998025,"perigee_km":461.82797681688,"apogee_km":463.74206679858,"semimajor_km":6840.9220218077,"source":"CELESTRAK","updated_at":"2026-09-20T09:00:40.149526Z"}}